User: anonymous   Login
Location: Unspecified
(0.0000°N, 0.0000°E)
Time: 10:04:15
(UTC+01:00)
Language:

OPAL - Orbit

View from above orbital plane
View from above orbital plane
View from above satellite
View from above satellite

Ground track
Ground track

The orbit data is extracted from the following two-line orbital elements,

1 26063U 00004C   17056.16253668  .00000003  00000-0  21034-4 0  9994
2 26063 100.2220  38.9207 0035782 264.2593  95.4507 14.36653564895297
Epoch (UTC): 25 February 2017 03:54:03
Eccentricity: 0.0035782
inclination: 100.2220°
perigee height: 744 km
apogee height: 795 km
right ascension of ascending node: 38.9207°
argument of perigee: 264.2593°
revolutions per day: 14.36653564
mean anomaly at epoch: 95.4507°
orbit number at epoch: 89529

The dashed part of the orbit path shows where the satellite is in the earth's shadow,  

DLR